Home > Weather > Visalia > Past weeks

Flag for USA Past Weather in Visalia, California, USA — Yesterday and Last 2 Weeks

Now
88 °F

Sunny.


Feels Like: 87 °F
Forecast: 68 / 106 °F
Wind: 10 mph from Northwest

Location: Visalia Municipal

Current Time: Jun 29, 2016 at 10:09:20 PM

Latest Report: Jun 29, 2016 at 8:56 PM


Visibility: 10 mi

Pressure: 29.80 "Hg

Humidity: 35%

Dew Point: 57 °F

Location of VisaliaLocation

Past Weather in Visalia — Graph

°F

Visalia Temperature Yesterday

Maximum temperature yesterday: 103 °F (at 5:56 PM)
Minimum temperature yesterday: 69 °F (at 4:56 AM)
Average temperature yesterday: 88 °F

High & Low Weather Summary for the Past Weeks

 TemperatureHumidityPressure
High104 °F (Jun 29, 5:56 PM)85% (Jun 27, 5:56 AM)30.16 "Hg (Jun 27, 5:56 AM)
Low51 °F (Jun 16, 5:56 AM)13% (Jun 29, 3:56 PM)29.79 "Hg (Jun 29, 5:56 PM)
Average79 °F43%29.96 "Hg
* Reported Jun 14 8:56 PM — Jun 29 8:56 PM, Visalia, Weather by CustomWeather, © 2016

Note: Actual official high and low records may vary slightly from our data, if they occured in-between our weather recording intervals... More about our weather records

Advertising

Visalia Weather History for the Previous 24 Hours

Scroll right to see more
 ConditionsComfort  
Time TempWeatherWind HumidityBarometerVisibility
8:56 PM
Wed, Jun 29
88 °FSunny.10 mph35%29.80 "Hg10 mi
7:56 PM94 °FSunny.13 mph25%29.79 "Hg10 mi
6:56 PM99 °FSunny.13 mph21%29.79 "Hg10 mi
5:56 PM104 °FSunny.10 mph13%29.79 "Hg10 mi
4:56 PM103 °FSunny.7 mph15%29.80 "Hg10 mi
3:56 PM103 °FSunny.9 mph13%29.81 "Hg10 mi
2:56 PM102 °FSunny.7 mph21%29.84 "Hg10 mi
1:56 PM102 °FSunny.9 mph19%29.85 "Hg10 mi
12:56 PM98 °FSunny.8 mph22%29.88 "Hg10 mi
11:56 AM93 °FSunny.7 mph26%29.90 "Hg10 mi
10:56 AM91 °FSunny.7 mph30%29.90 "Hg10 mi
9:56 AM86 °FSunny.3 mph35%29.91 "Hg10 mi
8:56 AM81 °FSunny.6 mph41%29.91 "Hg10 mi
7:56 AM75 °FSunny.No wind55%29.90 "Hg10 mi
6:56 AM73 °FSunny.No wind64%29.89 "Hg10 mi
5:56 AM70 °FClear.No wind73%29.88 "Hg10 mi
4:56 AM72 °FClear.3 mph66%29.86 "Hg10 mi
3:56 AM79 °FClear.7 mph47%29.85 "Hg10 mi
2:56 AM80 °FClear.9 mph45%29.85 "Hg10 mi
1:56 AM81 °FClear.12 mph45%29.85 "Hg10 mi
12:56 AM83 °FClear.8 mph48%29.85 "Hg10 mi
11:56 PM
Tue, Jun 28
84 °FClear.7 mph46%29.85 "Hg10 mi
10:56 PM85 °FClear.9 mph45%29.85 "Hg10 mi
Weather by CustomWeather, © 2016

See weather overviewHow to use our weather pages